Powrót do katalogu

CZ-6A DEB

AktywnyPO
NORAD 54917·DEBRIS·🇨🇳 China

Wystrzelony Nov 11, 2022 z Taiyuan Satellite Launch Center

Loading…

Następne Przeloty (najbliższe 24 godziny)

TLE

ŚwieżeSource: Space-Track

Epoka: Sep 13, 2026, 04:25 UTC

1 54917U 22151RE  26256.18420450  .00006072  00000-0  85456-3 0  9998
2 54917  98.6348 334.0700 0065835 351.0182   8.9842 14.76238825200245

Śledź CZ-6A DEB w czasie rzeczywistym z AllMySat

Download on the App Store